{"data":{"norad_id":41838,"epoch":"2026-05-25T03:56:57.849216Z","epoch_age_seconds":54054,"freshness":"FRESH","line1":"1 41838U 16065A   26145.16455844 -.00000127  00000+0  00000+0 0  9996","line2":"2 41838   5.6969  72.8772 0001854   9.7099 129.8193  0.99854598 34979","mean_motion":0.99854598,"eccentricity":0.0001854,"inclination_deg":5.6969,"raan_deg":72.8772,"arg_perigee_deg":9.7099,"mean_anomaly_deg":129.8193,"bstar":0,"rev_number":3497,"period_min":1442.0968376439,"perigee_km":35896.115517877,"apogee_km":35911.793717448,"semimajor_km":42282.091617663,"source":"CELESTRAK","updated_at":"2026-05-25T13:38:14.008764Z"}}